Regional Weather Roundup
Issued by NWS Little Rock, AR

Home | Current Version | Previous Version | Graphics & Text | Print | Product List | Glossary On
Versions: 1 2 3 4 5 6 7 8 9 10 11 12 13 14 15 16 17 18 19 20 21 22 23 24 25 26 27 28 29 30 31 32 33 34 35 36 37 38 39 40 41 42 43 44 45 46 47 48 49 50
000
ASUS44 KLZK 281905
RWRLZK

WEATHER ROUNDUP FOR ARKANSAS
NATIONAL WEATHER SERVICE LITTLE ROCK AR
200 PM CDT THU AUG 28 2014

NOTE: "FAIR" INDICATES FEW OR NO CLOUDS BELOW 12,000 FEET WITH NO
SIGNIFICANT WEATHER AND/OR OBSTRUCTIONS TO VISIBILITY.

ARZ001-003-010-029-282000-
NORTHWEST ARKANSAS

CITY           SKY/WX    TMP DP  RH WIND       PRES   REMARKS
FAYETTEVILLE   MOSUNNY   88  63  43 S14G23    30.01F HX  89
FORT SMITH     MOSUNNY   93  65  39 S8        29.96F HX  95
HARRISON       MOSUNNY   87  63  44 S8G17     30.03F HX  88
BENTONVILLE    PTSUNNY   90  61  37 SW9       30.02F HX  89
ROGERS         MOSUNNY   88  59  37 SE5       30.02F HX  87
SILOAM SPGS    MOSUNNY   88  64  45 SW13      30.01F HX  89
HIGHFILL       MOSUNNY   90  62  39 SW12      30.00F HX  90
SPRINGDALE     MOSUNNY   88  63  42 SE8       30.03F HX  88
$$

ARZ004-005-016-282000-
NORTH CENTRAL ARKANSAS

CITY           SKY/WX    TMP DP  RH WIND       PRES   REMARKS
BATESVILLE     MOSUNNY   93  63  36 SE12      29.98F HX  94
FLIPPIN        MOSUNNY   91  61  35 S7        30.00F HX  91
MTN HOME       MOSUNNY   91  62  37 SW8       30.00F HX  91
$$

ARZ040-041-282000-
WEST CENTRAL ARKANSAS

CITY           SKY/WX    TMP DP  RH WIND       PRES   REMARKS
MENA           PTSUNNY   91  66  43 S6        30.01F HX  94
MOUNT IDA      MOSUNNY   88  66  48 VRB3      29.99F HX  90
$$

ARZ009-017-025-026-028-282000-
NORTHEAST ARKANSAS

CITY           SKY/WX    TMP DP  RH WIND       PRES   REMARKS
CORNING        LGT RAIN  90  68  48 CALM      30.00F HX  93
JONESBORO      SUNNY     91  62  37 SE6       29.99F HX  91
NEWPORT        SUNNY     92  67  43 E6        30.00F HX  95
WALNUT RIDGE   MOSUNNY   91  64  40 S9        29.98F HX  93
BLYTHEVILLE    MOSUNNY   90  70  51 W5        30.00F HX  95
$$

ARZ022-023-033-042-044-282000-
CENTRAL ARKANSAS

CITY           SKY/WX    TMP DP  RH WIND       PRES   REMARKS
LITTLE ROCK    PTSUNNY   91  67  44 VRB5      29.99F HX  94
N LITTLE ROCK  PTSUNNY   90  67  45 S5        29.99F HX  93
JACKSONVILLE   SUNNY     92  67  42 S5        29.99F HX  95
SEARCY         SUNNY     93  67  42 MISG      30.00F HX  96
HOT SPRINGS    PTSUNNY   89  66  46 MISG      30.00F HX  91
RUSSELLVILLE   MOSUNNY   91  65  41 SW5       29.98F HX  93
CLINTON        FAIR      91  66  43 SE7       29.99F HX  94
$$

ARZ036-282000-
EAST ARKANSAS

CITY           SKY/WX    TMP DP  RH WIND       PRES   REMARKS
WEST MEMPHIS     N/A     91  66  43 SW6       29.98F HX  93
$$

ARZ050-053-066-070-073-282000-
SOUTHWEST ARKANSAS

CITY           SKY/WX    TMP DP  RH WIND       PRES   REMARKS
ARKADELPHIA    FAIR      93  71  48 S6        29.98F HX  99
CAMDEN         SUNNY     93  64  38 SW5       29.98F HX  95
TEXARKANA      PTSUNNY   93  68  43 S6        29.96F HX  97
EL DORADO      PTSUNNY   92  68  45 VRB5      29.97F HX  96
DE QUEEN       MOSUNNY   89  68  49 SE6       29.95F HX  93
$$

ARZ056-057-069-282000-
SOUTHEAST ARKANSAS

CITY           SKY/WX    TMP DP  RH WIND       PRES   REMARKS
PINE BLUFF     PTSUNNY   90  65  43 CALM      29.99F HX  92
STUTTGART      MOSUNNY   91  66  43 SE7       30.01F HX  94
MONTICELLO     SUNNY     93  62  35 E8        29.98F HX  93

$$





USA.gov is the U.S. government's official web portal to all federal, state and local government web resources and services.